Time,TemperatureF,DewpointF,PressureIn,WindDirection,WindDirectionDegrees,WindSpeedMPH,WindSpeedGustMPH,Humidity,HourlyPrecipIn,Conditions,Clouds,dailyrainin,SoftwareType,DateUTC
2013-06-18 00:00:00,66.2,64.5,29.95,NNW,337,2.8,3.5,94,0.00,,,0.00,Rainwise IP-100,2013-06-18 04:00:00,
2013-06-18 00:01:00,66.2,64.5,29.95,NNW,337,1.9,3.5,94,0.00,,,0.00,Rainwise IP-100,2013-06-18 04:01:00,
2013-06-18 00:06:00,66.1,64.0,29.95,NNW,337,3.3,5.1,94,0.00,,,0.00,Rainwise IP-100,2013-06-18 04:06:00,
2013-06-18 00:11:00,66.1,64.0,29.95,North,360,3.5,4.4,94,0.00,,,0.00,Rainwise IP-100,2013-06-18 04:11:00,
2013-06-18 00:16:00,66.1,64.5,29.95,North,360,2.6,4.7,95,0.00,,,0.00,Rainwise IP-100,2013-06-18 04:16:00,
2013-06-18 00:21:00,66.0,64.5,29.94,North,360,0.0,4.9,95,0.00,,,0.00,Rainwise IP-100,2013-06-18 04:21:00,
2013-06-18 00:26:00,65.8,64.5,29.94,NNW,337,2.3,4.7,95,0.00,,,0.00,Rainwise IP-100,2013-06-18 04:26:00,
2013-06-18 00:31:00,65.7,64.0,29.94,NNE,22,2.8,3.7,95,0.00,,,0.00,Rainwise IP-100,2013-06-18 04:31:00,
2013-06-18 00:36:00,65.7,64.0,29.95,NNW,337,3.0,4.9,95,0.00,,,0.00,Rainwise IP-100,2013-06-18 04:36:00,
2013-06-18 00:41:00,65.5,64.0,29.94,North,360,1.9,5.1,95,0.00,,,0.00,Rainwise IP-100,2013-06-18 04:41:00,
2013-06-18 00:47:00,65.4,64.0,29.94,NNE,22,4.7,5.6,95,0.00,,,0.00,Rainwise IP-100,2013-06-18 04:47:00,
2013-06-18 00:52:00,65.3,64.0,29.94,NNW,337,2.8,5.1,95,0.00,,,0.00,Rainwise IP-100,2013-06-18 04:52:00,
2013-06-18 00:57:00,65.3,64.0,29.94,NNW,337,3.7,5.1,95,0.00,,,0.00,Rainwise IP-100,2013-06-18 04:57:00,
2013-06-18 01:02:00,65.2,63.5,29.93,NNW,337,4.4,6.8,95,0.00,,,0.00,Rainwise IP-100,2013-06-18 05:02:00,
2013-06-18 01:07:00,65.0,63.5,29.94,NNW,337,2.8,6.8,95,0.00,,,0.00,Rainwise IP-100,2013-06-18 05:07:00,
2013-06-18 01:12:00,64.9,63.5,29.94,NNW,337,2.8,7.0,95,0.00,,,0.00,Rainwise IP-100,2013-06-18 05:12:00,
2013-06-18 01:17:00,64.9,63.5,29.94,NNE,22,1.6,4.2,95,0.00,,,0.00,Rainwise IP-100,2013-06-18 05:17:00,
2013-06-18 01:22:00,64.9,63.5,29.94,NNW,337,3.0,5.6,95,0.00,,,0.00,Rainwise IP-100,2013-06-18 05:22:00,
2013-06-18 01:28:00,64.9,63.5,29.94,North,360,1.9,5.6,95,0.00,,,0.00,Rainwise IP-100,2013-06-18 05:28:00,
2013-06-18 01:33:00,64.8,63.5,29.94,North,360,3.3,7.0,95,0.00,,,0.00,Rainwise IP-100,2013-06-18 05:33:00,
2013-06-18 01:38:00,64.8,64.0,29.93,NNW,337,2.6,7.0,96,0.00,,,0.00,Rainwise IP-100,2013-06-18 05:38:00,
2013-06-18 01:43:00,64.7,63.5,29.94,NNW,337,2.8,6.3,96,0.00,,,0.00,Rainwise IP-100,2013-06-18 05:43:00,
2013-06-18 01:48:00,64.7,63.5,29.94,NNW,337,3.7,7.7,96,0.00,,,0.00,Rainwise IP-100,2013-06-18 05:48:00,
2013-06-18 01:53:00,64.7,63.5,29.94,NNE,22,2.8,7.0,96,0.00,,,0.00,Rainwise IP-100,2013-06-18 05:53:00,
2013-06-18 01:58:00,64.7,63.5,29.94,North,360,2.3,5.6,96,0.00,,,0.00,Rainwise IP-100,2013-06-18 05:58:00,
2013-06-18 02:00:00,64.7,63.5,29.94,NNW,337,4.4,6.1,96,0.00,,,0.00,Rainwise IP-100,2013-06-18 06:00:00,
2013-06-18 02:05:00,64.5,63.5,29.94,NNW,337,4.2,8.2,96,0.00,,,0.00,Rainwise IP-100,2013-06-18 06:05:00,
2013-06-18 02:10:00,64.4,63.5,29.94,North,360,1.4,6.8,96,0.00,,,0.00,Rainwise IP-100,2013-06-18 06:10:00,
2013-06-18 02:16:00,64.4,63.5,29.94,NNE,22,1.9,4.4,96,0.00,,,0.00,Rainwise IP-100,2013-06-18 06:16:00,
2013-06-18 02:21:00,64.3,63.5,29.94,ENE,67,0.0,3.0,96,0.00,,,0.00,Rainwise IP-100,2013-06-18 06:21:00,
2013-06-18 02:26:00,64.3,63.5,29.94,ESE,112,1.9,3.7,96,0.00,,,0.00,Rainwise IP-100,2013-06-18 06:26:00,
2013-06-18 02:31:00,64.2,63.0,29.94,ENE,67,2.3,2.3,96,0.00,,,0.00,Rainwise IP-100,2013-06-18 06:31:00,
2013-06-18 02:36:00,64.1,63.0,29.93,North,360,2.8,3.3,96,0.00,,,0.00,Rainwise IP-100,2013-06-18 06:36:00,
2013-06-18 02:41:00,63.9,63.0,29.93,North,360,2.8,5.6,96,0.00,,,0.00,Rainwise IP-100,2013-06-18 06:41:00,
2013-06-18 02:46:00,63.8,63.0,29.92,North,360,3.3,4.7,96,0.00,,,0.00,Rainwise IP-100,2013-06-18 06:46:00,
2013-06-18 02:51:00,63.6,62.5,29.92,NNW,337,3.3,5.6,96,0.00,,,0.00,Rainwise IP-100,2013-06-18 06:51:00,
2013-06-18 02:56:00,63.6,62.5,29.92,NNW,337,4.0,5.6,97,0.00,,,0.00,Rainwise IP-100,2013-06-18 06:56:00,
2013-06-18 03:02:00,63.6,62.5,29.93,NNE,22,0.0,6.3,97,0.00,,,0.00,Rainwise IP-100,2013-06-18 07:02:00,
2013-06-18 03:07:00,63.6,62.5,29.93,North,360,3.0,3.7,97,0.00,,,0.00,Rainwise IP-100,2013-06-18 07:07:00,
2013-06-18 03:12:00,63.5,62.5,29.92,NNW,337,1.9,4.2,97,0.00,,,0.00,Rainwise IP-100,2013-06-18 07:12:00,
2013-06-18 03:17:00,63.5,62.5,29.92,North,360,3.0,4.4,97,0.00,,,0.00,Rainwise IP-100,2013-06-18 07:17:00,
2013-06-18 03:22:00,63.5,62.5,29.92,NNW,337,2.3,4.9,97,0.00,,,0.00,Rainwise IP-100,2013-06-18 07:22:00,
2013-06-18 03:27:00,63.5,62.5,29.92,North,360,3.3,4.0,97,0.00,,,0.00,Rainwise IP-100,2013-06-18 07:27:00,
2013-06-18 03:32:00,63.4,62.5,29.92,North,360,2.1,3.5,97,0.00,,,0.00,Rainwise IP-100,2013-06-18 07:32:00,
2013-06-18 03:38:00,63.3,62.5,29.92,NNW,337,2.8,4.2,97,0.00,,,0.00,Rainwise IP-100,2013-06-18 07:38:00,
2013-06-18 03:43:00,63.3,62.5,29.92,North,360,2.6,5.1,97,0.00,,,0.00,Rainwise IP-100,2013-06-18 07:43:00,
2013-06-18 03:48:00,63.3,62.5,29.92,NNW,337,3.5,5.6,97,0.00,,,0.00,Rainwise IP-100,2013-06-18 07:48:00,
2013-06-18 03:53:00,63.3,62.5,29.92,NNW,337,4.7,5.1,97,0.00,,,0.00,Rainwise IP-100,2013-06-18 07:53:00,
2013-06-18 03:58:00,63.3,62.5,29.92,NNW,337,4.2,4.9,97,0.00,,,0.00,Rainwise IP-100,2013-06-18 07:58:00,
2013-06-18 04:03:00,63.3,62.5,29.92,North,360,1.4,4.9,97,0.00,,,0.00,Rainwise IP-100,2013-06-18 08:03:00,
2013-06-18 04:08:00,63.3,62.5,29.92,NNW,337,2.3,2.8,97,0.00,,,0.00,Rainwise IP-100,2013-06-18 08:08:00,
2013-06-18 04:13:00,63.3,62.5,29.92,NNW,337,1.9,2.8,97,0.00,,,0.00,Rainwise IP-100,2013-06-18 08:13:00,
2013-06-18 04:18:00,63.2,62.0,29.92,NNW,337,0.0,2.6,97,0.00,,,0.00,Rainwise IP-100,2013-06-18 08:18:00,
2013-06-18 04:24:00,63.0,62.0,29.92,NNW,337,2.3,2.6,97,0.00,,,0.00,Rainwise IP-100,2013-06-18 08:24:00,
2013-06-18 04:29:00,63.0,62.0,29.92,NNW,337,3.5,3.5,97,0.00,,,0.00,Rainwise IP-100,2013-06-18 08:29:00,
2013-06-18 04:34:00,63.0,62.0,29.92,NNW,337,2.6,3.7,97,0.00,,,0.00,Rainwise IP-100,2013-06-18 08:34:00,
2013-06-18 04:39:00,62.9,62.0,29.92,NNW,337,2.3,4.2,97,0.00,,,0.00,Rainwise IP-100,2013-06-18 08:39:00,
2013-06-18 04:44:00,62.8,62.0,29.92,NNE,22,2.1,4.2,97,0.00,,,0.00,Rainwise IP-100,2013-06-18 08:44:00,
2013-06-18 04:49:00,62.8,62.0,29.92,North,360,2.3,3.3,97,0.00,,,0.00,Rainwise IP-100,2013-06-18 08:49:00,
2013-06-18 04:54:00,62.7,61.5,29.92,NNE,22,2.1,4.2,97,0.00,,,0.00,Rainwise IP-100,2013-06-18 08:54:00,
2013-06-18 05:00:00,62.7,61.5,29.92,NNE,22,1.6,4.0,97,0.00,,,0.00,Rainwise IP-100,2013-06-18 09:00:00,
2013-06-18 05:05:00,62.6,61.5,29.92,NNE,22,2.3,4.7,97,0.00,,,0.00,Rainwise IP-100,2013-06-18 09:05:00,
2013-06-18 05:10:00,62.6,61.5,29.93,North,360,2.6,4.2,97,0.00,,,0.00,Rainwise IP-100,2013-06-18 09:10:00,
2013-06-18 05:15:00,62.6,61.5,29.93,NNW,337,3.7,4.0,97,0.00,,,0.00,Rainwise IP-100,2013-06-18 09:15:00,
2013-06-18 05:20:00,62.6,61.5,29.93,NNW,337,3.3,4.7,97,0.00,,,0.00,Rainwise IP-100,2013-06-18 09:20:00,
2013-06-18 05:25:00,62.6,61.5,29.93,NNW,337,4.2,5.6,97,0.00,,,0.00,Rainwise IP-100,2013-06-18 09:25:00,
2013-06-18 05:30:00,62.7,61.5,29.94,NNW,337,1.9,4.7,97,0.00,,,0.00,Rainwise IP-100,2013-06-18 09:30:00,
2013-06-18 05:36:00,62.7,61.5,29.94,NNW,337,1.9,3.0,97,0.00,,,0.00,Rainwise IP-100,2013-06-18 09:36:00,
2013-06-18 05:41:00,62.7,61.5,29.94,NNW,337,1.4,2.3,97,0.00,,,0.00,Rainwise IP-100,2013-06-18 09:41:00,
2013-06-18 05:46:00,62.8,62.0,29.94,NNW,337,3.5,4.0,97,0.00,,,0.00,Rainwise IP-100,2013-06-18 09:46:00,
2013-06-18 05:51:00,62.8,62.0,29.94,North,360,3.3,4.2,97,0.00,,,0.00,Rainwise IP-100,2013-06-18 09:51:00,
2013-06-18 05:56:00,62.9,62.0,29.94,North,360,1.6,3.3,97,0.00,,,0.00,Rainwise IP-100,2013-06-18 09:56:00,
2013-06-18 06:01:00,63.1,62.0,29.94,North,360,2.3,3.0,97,0.00,,,0.00,Rainwise IP-100,2013-06-18 10:01:00,
2013-06-18 06:06:00,63.2,62.0,29.94,NNE,22,1.6,2.6,97,0.00,,,0.00,Rainwise IP-100,2013-06-18 10:06:00,
2013-06-18 06:11:00,63.3,62.5,29.94,NNE,22,0.0,2.8,97,0.00,,,0.00,Rainwise IP-100,2013-06-18 10:11:00,
2013-06-18 06:16:00,63.3,62.5,29.94,NNE,22,1.9,2.3,97,0.00,,,0.00,Rainwise IP-100,2013-06-18 10:16:00,
2013-06-18 06:21:00,63.3,62.5,29.94,North,360,1.4,3.7,97,0.00,,,0.00,Rainwise IP-100,2013-06-18 10:21:00,
2013-06-18 06:27:00,63.5,62.5,29.94,North,360,1.6,3.3,97,0.00,,,0.00,Rainwise IP-100,2013-06-18 10:27:00,
2013-06-18 06:32:00,63.7,62.5,29.94,NNE,22,1.2,2.8,97,0.00,,,0.00,Rainwise IP-100,2013-06-18 10:32:00,
2013-06-18 06:37:00,64.1,63.0,29.94,NE,45,0.0,3.3,97,0.00,,,0.00,Rainwise IP-100,2013-06-18 10:37:00,
2013-06-18 06:42:00,64.5,63.5,29.94,NE,45,1.2,1.4,97,0.00,,,0.00,Rainwise IP-100,2013-06-18 10:42:00,
2013-06-18 06:47:00,64.9,64.0,29.94,NNE,22,1.4,1.6,96,0.00,,,0.00,Rainwise IP-100,2013-06-18 10:47:00,
2013-06-18 06:52:00,65.3,64.0,29.94,NNE,22,0.0,2.3,95,0.00,,,0.00,Rainwise IP-100,2013-06-18 10:52:00,
2013-06-18 06:54:00,65.3,64.0,29.94,NNE,22,1.4,2.3,95,0.00,,,0.00,Rainwise IP-100,2013-06-18 10:54:00,
2013-06-18 06:59:00,65.6,63.5,29.94,NNE,22,0.0,2.1,94,0.00,,,0.00,Rainwise IP-100,2013-06-18 10:59:00,
2013-06-18 07:04:00,66.0,64.0,29.94,NNE,22,1.4,3.7,94,0.00,,,0.00,Rainwise IP-100,2013-06-18 11:04:00,
2013-06-18 07:09:00,66.3,64.0,29.94,NNE,22,0.0,2.8,93,0.00,,,0.00,Rainwise IP-100,2013-06-18 11:09:00,
2013-06-18 07:14:00,66.8,64.5,29.94,NNE,22,2.1,3.5,92,0.00,,,0.00,Rainwise IP-100,2013-06-18 11:14:00,
2013-06-18 07:19:00,67.4,65.0,29.94,ESE,112,2.3,3.5,91,0.00,,,0.00,Rainwise IP-100,2013-06-18 11:19:00,
2013-06-18 07:24:00,67.3,64.5,29.94,ENE,67,0.0,3.5,90,0.00,,,0.00,Rainwise IP-100,2013-06-18 11:24:00,
2013-06-18 07:29:00,67.1,64.0,29.93,ENE,67,3.0,3.0,89,0.00,,,0.00,Rainwise IP-100,2013-06-18 11:29:00,
2013-06-18 07:34:00,67.2,64.0,29.93,ENE,67,3.5,4.0,89,0.00,,,0.00,Rainwise IP-100,2013-06-18 11:34:00,
2013-06-18 07:39:00,67.2,64.0,29.94,ENE,67,3.0,3.7,89,0.00,,,0.00,Rainwise IP-100,2013-06-18 11:39:00,
2013-06-18 07:44:00,67.3,64.5,29.94,ENE,67,0.0,4.0,89,0.00,,,0.00,Rainwise IP-100,2013-06-18 11:44:00,
2013-06-18 07:49:00,67.4,64.5,29.94,ENE,67,2.1,2.8,89,0.00,,,0.00,Rainwise IP-100,2013-06-18 11:49:00,
2013-06-18 07:54:00,67.2,64.0,29.94,East,90,3.5,3.5,89,0.00,,,0.00,Rainwise IP-100,2013-06-18 11:54:00,
2013-06-18 07:59:00,67.0,64.0,29.94,ENE,67,1.4,4.2,89,0.00,,,0.00,Rainwise IP-100,2013-06-18 11:59:00,
2013-06-18 08:05:00,67.2,64.0,29.94,ENE,67,1.4,2.3,89,0.00,,,0.00,Rainwise IP-100,2013-06-18 12:05:00,
2013-06-18 08:10:00,67.8,64.5,29.93,NE,45,2.1,3.5,88,0.00,,,0.00,Rainwise IP-100,2013-06-18 12:10:00,
2013-06-18 08:15:00,68.2,64.5,29.94,ENE,67,1.9,4.0,88,0.00,,,0.00,Rainwise IP-100,2013-06-18 12:15:00,
2013-06-18 08:18:00,68.2,64.0,29.94,East,90,3.7,4.0,87,0.00,,,0.00,Rainwise IP-100,2013-06-18 12:18:00,
2013-06-18 08:23:00,68.0,64.0,29.94,ENE,67,2.1,4.7,87,0.00,,,0.00,Rainwise IP-100,2013-06-18 12:23:00,
2013-06-18 08:26:00,68.0,64.0,29.94,ESE,112,4.7,4.7,87,0.00,,,0.00,Rainwise IP-100,2013-06-18 12:26:00,
2013-06-18 08:31:00,67.7,63.5,29.95,ESE,112,5.4,5.4,87,0.00,,,0.00,Rainwise IP-100,2013-06-18 12:31:00,
2013-06-18 08:37:00,67.1,63.5,29.95,ESE,112,5.6,6.8,88,0.00,,,0.00,Rainwise IP-100,2013-06-18 12:37:00,
2013-06-18 08:42:00,66.9,63.5,29.95,ESE,112,4.7,6.5,88,0.00,,,0.00,Rainwise IP-100,2013-06-18 12:42:00,
2013-06-18 08:47:00,67.0,64.0,29.95,ESE,112,5.8,6.1,89,0.00,,,0.00,Rainwise IP-100,2013-06-18 12:47:00,
2013-06-18 08:52:00,66.9,64.0,29.95,ESE,112,7.2,7.2,89,0.00,,,0.00,Rainwise IP-100,2013-06-18 12:52:00,
2013-06-18 08:57:00,66.6,63.5,29.94,ESE,112,6.8,7.2,89,0.00,,,0.00,Rainwise IP-100,2013-06-18 12:57:00,
2013-06-18 09:02:00,66.6,63.5,29.94,ESE,112,6.8,7.2,90,0.00,,,0.00,Rainwise IP-100,2013-06-18 13:02:00,
2013-06-18 09:07:00,66.8,63.5,29.94,ESE,112,6.8,7.5,90,0.00,,,0.00,Rainwise IP-100,2013-06-18 13:07:00,
2013-06-18 09:12:00,66.9,64.0,29.94,ESE,112,6.3,7.7,90,0.00,,,0.00,Rainwise IP-100,2013-06-18 13:12:00,
2013-06-18 09:17:00,67.0,64.0,29.94,ESE,112,8.4,8.6,90,0.00,,,0.00,Rainwise IP-100,2013-06-18 13:17:00,
2013-06-18 09:22:00,67.0,64.0,29.94,ESE,112,7.7,8.6,90,0.00,,,0.00,Rainwise IP-100,2013-06-18 13:22:00,
2013-06-18 09:28:00,66.8,63.5,29.94,ESE,112,9.6,9.8,90,0.00,,,0.00,Rainwise IP-100,2013-06-18 13:28:00,
2013-06-18 09:33:00,66.4,63.5,29.94,ESE,112,7.2,9.8,90,0.00,,,0.00,Rainwise IP-100,2013-06-18 13:33:00,
2013-06-18 09:35:00,66.3,63.5,29.94,ESE,112,7.2,8.9,90,0.00,,,0.00,Rainwise IP-100,2013-06-18 13:35:00,
2013-06-18 09:40:00,66.3,63.5,29.94,East,90,4.9,9.6,91,0.00,,,0.00,Rainwise IP-100,2013-06-18 13:40:00,
2013-06-18 09:45:00,66.7,63.5,29.94,East,90,3.5,8.6,90,0.00,,,0.00,Rainwise IP-100,2013-06-18 13:45:00,
2013-06-18 09:50:00,67.1,64.0,29.94,ESE,112,7.0,8.2,90,0.00,,,0.00,Rainwise IP-100,2013-06-18 13:50:00,
2013-06-18 09:55:00,66.9,64.0,29.93,ESE,112,6.8,9.6,90,0.00,,,0.00,Rainwise IP-100,2013-06-18 13:55:00,
2013-06-18 10:00:00,66.6,63.5,29.94,ESE,112,7.9,10.3,90,0.00,,,0.00,Rainwise IP-100,2013-06-18 14:00:00,
2013-06-18 10:05:00,66.4,63.5,29.94,ESE,112,6.5,10.5,90,0.00,,,0.00,Rainwise IP-100,2013-06-18 14:05:00,
2013-06-18 10:10:00,66.6,64.0,29.93,ESE,112,7.0,9.3,91,0.00,,,0.00,Rainwise IP-100,2013-06-18 14:10:00,
2013-06-18 10:15:00,66.7,64.0,29.93,East,90,4.9,11.0,91,0.00,,,0.00,Rainwise IP-100,2013-06-18 14:15:00,
2013-06-18 10:21:00,67.0,64.5,29.93,ESE,112,7.2,9.3,91,0.00,,,0.00,Rainwise IP-100,2013-06-18 14:21:00,
2013-06-18 10:26:00,67.3,65.0,29.93,ENE,67,5.8,8.9,91,0.00,,,0.00,Rainwise IP-100,2013-06-18 14:26:00,
2013-06-18 10:31:00,67.4,65.0,29.93,ESE,112,7.9,7.9,91,0.00,,,0.00,Rainwise IP-100,2013-06-18 14:31:00,
2013-06-18 10:36:00,67.2,64.5,29.93,ESE,112,9.8,10.3,91,0.00,,,0.00,Rainwise IP-100,2013-06-18 14:36:00,
2013-06-18 10:41:00,66.8,64.0,29.93,ESE,112,7.9,10.7,91,0.00,,,0.00,Rainwise IP-100,2013-06-18 14:41:00,
2013-06-18 10:46:00,66.9,65.0,29.93,East,90,9.1,10.0,92,0.00,,,0.00,Rainwise IP-100,2013-06-18 14:46:00,
2013-06-18 10:51:00,67.2,65.0,29.93,ESE,112,7.2,9.8,92,0.00,,,0.00,Rainwise IP-100,2013-06-18 14:51:00,
2013-06-18 10:57:00,67.3,65.5,29.92,East,90,7.9,10.5,92,0.00,,,0.00,Rainwise IP-100,2013-06-18 14:57:00,
2013-06-18 11:02:00,67.4,65.5,29.92,ESE,112,5.1,9.6,92,0.00,,,0.00,Rainwise IP-100,2013-06-18 15:02:00,
2013-06-18 11:07:00,67.8,65.5,29.92,ESE,112,6.8,9.3,91,0.00,,,0.00,Rainwise IP-100,2013-06-18 15:07:00,
2013-06-18 11:12:00,67.9,65.5,29.92,ESE,112,7.5,10.3,91,0.00,,,0.00,Rainwise IP-100,2013-06-18 15:12:00,
2013-06-18 11:17:00,67.9,65.5,29.92,ESE,112,7.7,9.8,91,0.00,,,0.00,Rainwise IP-100,2013-06-18 15:17:00,
2013-06-18 11:22:00,68.0,65.5,29.92,East,90,9.8,11.2,91,0.00,,,0.00,Rainwise IP-100,2013-06-18 15:22:00,
2013-06-18 11:27:00,67.9,65.5,29.92,ESE,112,11.4,11.7,92,0.00,,,0.00,Rainwise IP-100,2013-06-18 15:27:00,
2013-06-18 11:33:00,68.0,65.5,29.92,ESE,112,5.4,12.1,91,0.00,,,0.00,Rainwise IP-100,2013-06-18 15:33:00,
2013-06-18 11:38:00,68.1,65.5,29.92,East,90,5.4,12.4,91,0.00,,,0.00,Rainwise IP-100,2013-06-18 15:38:00,
2013-06-18 11:43:00,68.3,66.0,29.92,East,90,8.9,11.2,91,0.00,,,0.00,Rainwise IP-100,2013-06-18 15:43:00,
2013-06-18 11:48:00,68.2,65.5,29.92,East,90,9.1,11.9,91,0.00,,,0.00,Rainwise IP-100,2013-06-18 15:48:00,
2013-06-18 11:53:00,68.1,65.5,29.91,East,90,6.3,11.4,91,0.00,,,0.00,Rainwise IP-100,2013-06-18 15:53:00,
2013-06-18 11:58:00,68.5,66.0,29.92,East,90,7.0,10.7,91,0.00,,,0.00,Rainwise IP-100,2013-06-18 15:58:00,
2013-06-18 12:03:00,69.2,66.3,29.91,East,90,5.8,9.3,90,0.00,,,0.00,Rainwise IP-100,2013-06-18 16:03:00,
2013-06-18 12:09:00,69.9,67.0,29.91,ESE,112,4.4,7.7,90,0.00,,,0.00,Rainwise IP-100,2013-06-18 16:09:00,
2013-06-18 12:14:00,70.1,66.7,29.91,East,90,8.9,10.0,89,0.00,,,0.00,Rainwise IP-100,2013-06-18 16:14:00,
2013-06-18 12:19:00,69.3,66.0,29.91,ESE,112,10.3,11.2,89,0.00,,,0.00,Rainwise IP-100,2013-06-18 16:19:00,
2013-06-18 12:24:00,68.4,65.5,29.90,ESE,112,10.0,14.7,90,0.00,,,0.00,Rainwise IP-100,2013-06-18 16:24:00,
2013-06-18 12:29:00,67.9,65.5,29.91,East,90,13.5,14.2,92,0.00,,,0.00,Rainwise IP-100,2013-06-18 16:29:00,
2013-06-18 12:34:00,67.9,65.5,29.90,ESE,112,10.3,15.4,92,0.00,,,0.00,Rainwise IP-100,2013-06-18 16:34:00,
2013-06-18 12:39:00,68.3,66.0,29.91,East,90,10.7,13.3,92,0.00,,,0.00,Rainwise IP-100,2013-06-18 16:39:00,
2013-06-18 12:45:00,68.2,65.5,29.90,East,90,10.7,13.5,92,0.00,,,0.00,Rainwise IP-100,2013-06-18 16:45:00,
2013-06-18 12:50:00,68.0,66.0,29.90,East,90,10.3,12.8,93,0.00,,,0.00,Rainwise IP-100,2013-06-18 16:50:00,
2013-06-18 12:55:00,67.9,66.0,29.90,East,90,9.3,11.4,93,0.00,,,0.00,Rainwise IP-100,2013-06-18 16:55:00,
2013-06-18 13:00:00,67.8,66.0,29.89,ESE,112,9.8,12.1,93,0.00,,,0.00,Rainwise IP-100,2013-06-18 17:00:00,
2013-06-18 13:05:00,67.9,66.0,29.89,East,90,8.2,13.3,93,0.00,,,0.00,Rainwise IP-100,2013-06-18 17:05:00,
2013-06-18 13:10:00,67.9,66.3,29.89,East,90,11.0,14.2,94,0.00,,,0.00,Rainwise IP-100,2013-06-18 17:10:00,
2013-06-18 13:15:00,67.8,66.3,29.88,East,90,8.4,13.1,94,0.00,,,0.00,Rainwise IP-100,2013-06-18 17:15:00,
2013-06-18 13:21:00,67.8,66.3,29.88,ESE,112,9.6,12.8,94,0.00,,,0.00,Rainwise IP-100,2013-06-18 17:21:00,
2013-06-18 13:26:00,67.7,66.0,29.88,ESE,112,10.7,13.1,94,0.00,,,0.00,Rainwise IP-100,2013-06-18 17:26:00,
2013-06-18 13:31:00,67.6,66.0,29.88,East,90,11.0,13.5,94,0.00,,,0.00,Rainwise IP-100,2013-06-18 17:31:00,
2013-06-18 13:36:00,67.6,66.3,29.88,East,90,7.9,14.0,95,0.00,,,0.00,Rainwise IP-100,2013-06-18 17:36:00,
2013-06-18 13:41:00,67.6,66.3,29.88,ENE,67,8.4,13.8,95,0.00,,,0.00,Rainwise IP-100,2013-06-18 17:41:00,
2013-06-18 13:46:00,67.6,66.3,29.88,East,90,11.0,16.1,95,0.00,,,0.00,Rainwise IP-100,2013-06-18 17:46:00,
2013-06-18 13:51:00,67.7,66.3,29.88,ENE,67,6.1,13.5,95,0.00,,,0.00,Rainwise IP-100,2013-06-18 17:51:00,
2013-06-18 13:57:00,68.1,66.3,29.88,East,90,7.0,9.6,94,0.00,,,0.00,Rainwise IP-100,2013-06-18 17:57:00,
2013-06-18 14:02:00,68.3,66.7,29.88,ESE,112,4.9,9.8,94,0.00,,,0.00,Rainwise IP-100,2013-06-18 18:02:00,
2013-06-18 14:07:00,68.1,66.3,29.88,ESE,112,4.9,9.6,94,0.00,,,0.00,Rainwise IP-100,2013-06-18 18:07:00,
2013-06-18 14:12:00,67.6,66.3,29.88,ENE,67,6.8,10.5,95,0.00,,,0.00,Rainwise IP-100,2013-06-18 18:12:00,
2013-06-18 14:17:00,67.2,66.0,29.87,East,90,7.0,10.5,95,0.00,,,0.00,Rainwise IP-100,2013-06-18 18:17:00,
2013-06-18 14:22:00,67.0,66.0,29.87,ESE,112,7.2,10.5,96,0.00,,,0.00,Rainwise IP-100,2013-06-18 18:22:00,
2013-06-18 14:27:00,66.9,66.0,29.88,ENE,67,2.8,11.7,96,0.00,,,0.00,Rainwise IP-100,2013-06-18 18:27:00,
2013-06-18 14:32:00,67.2,66.3,29.88,ENE,67,1.9,7.2,97,0.00,,,0.00,Rainwise IP-100,2013-06-18 18:32:00,
2013-06-18 14:38:00,67.8,67.0,29.87,East,90,5.6,6.8,97,0.00,,,0.00,Rainwise IP-100,2013-06-18 18:38:00,
2013-06-18 14:43:00,68.2,67.0,29.87,North,360,0.0,6.5,97,0.00,,,0.00,Rainwise IP-100,2013-06-18 18:43:00,
2013-06-18 14:48:00,68.5,67.0,29.87,ESE,112,6.3,7.0,96,0.00,,,0.00,Rainwise IP-100,2013-06-18 18:48:00,
2013-06-18 14:53:00,68.8,67.5,29.87,ESE,112,1.9,7.9,96,0.00,,,0.00,Rainwise IP-100,2013-06-18 18:53:00,
2013-06-18 14:58:00,68.9,67.5,29.87,East,90,4.9,7.7,96,0.00,,,0.00,Rainwise IP-100,2013-06-18 18:58:00,
2013-06-18 15:03:00,68.8,67.5,29.87,ESE,112,4.4,6.5,96,0.00,,,0.00,Rainwise IP-100,2013-06-18 19:03:00,
2013-06-18 15:08:00,68.9,67.5,29.87,East,90,6.3,6.3,96,0.00,,,0.00,Rainwise IP-100,2013-06-18 19:08:00,
2013-06-18 15:14:00,69.0,67.0,29.87,ENE,67,6.1,8.4,95,0.00,,,0.00,Rainwise IP-100,2013-06-18 19:14:00,
2013-06-18 15:19:00,68.9,67.0,29.87,East,90,5.8,9.6,95,0.00,,,0.00,Rainwise IP-100,2013-06-18 19:19:00,
2013-06-18 15:20:00,68.9,67.0,29.87,ESE,112,7.5,9.6,95,0.00,,,0.00,Rainwise IP-100,2013-06-18 19:20:00,
2013-06-18 15:24:00,68.9,67.0,29.87,ENE,67,4.4,8.6,95,0.00,,,0.00,Rainwise IP-100,2013-06-18 19:24:00,
2013-06-18 15:29:00,68.9,67.0,29.87,East,90,4.4,7.2,95,0.00,,,0.00,Rainwise IP-100,2013-06-18 19:29:00,
2013-06-18 15:34:00,69.1,67.0,29.88,ENE,67,3.7,7.7,95,0.00,,,0.00,Rainwise IP-100,2013-06-18 19:34:00,
2013-06-18 15:39:00,69.4,67.5,29.88,East,90,6.5,8.6,94,0.00,,,0.00,Rainwise IP-100,2013-06-18 19:39:00,
2013-06-18 15:44:00,69.6,68.0,29.87,ESE,112,5.8,8.4,94,0.00,,,0.00,Rainwise IP-100,2013-06-18 19:44:00,
2013-06-18 15:49:00,69.6,67.5,29.88,East,90,1.9,7.0,93,0.00,,,0.00,Rainwise IP-100,2013-06-18 19:49:00,
2013-06-18 15:55:00,69.9,68.0,29.87,ENE,67,2.3,3.5,93,0.00,,,0.00,Rainwise IP-100,2013-06-18 19:55:00,
2013-06-18 16:00:00,69.9,68.0,29.87,East,90,3.3,5.1,93,0.00,,,0.00,Rainwise IP-100,2013-06-18 20:00:00,
2013-06-18 16:05:00,69.7,67.5,29.87,ESE,112,7.7,8.4,93,0.00,,,0.01,Rainwise IP-100,2013-06-18 20:05:00,
2013-06-18 16:10:00,69.2,67.0,29.88,East,90,4.9,8.9,93,0.06,,,0.01,Rainwise IP-100,2013-06-18 20:10:00,
2013-06-18 16:15:00,69.1,66.7,29.88,NNW,337,2.1,5.6,93,0.06,,,0.01,Rainwise IP-100,2013-06-18 20:15:00,
2013-06-18 16:20:00,69.3,67.0,29.88,NW,315,4.0,4.9,93,0.00,,,0.01,Rainwise IP-100,2013-06-18 20:20:00,
2013-06-18 16:25:00,69.3,67.5,29.89,WNW,292,6.5,7.0,94,0.00,,,0.01,Rainwise IP-100,2013-06-18 20:25:00,
2013-06-18 16:30:00,69.3,67.5,29.89,NW,315,4.0,6.8,94,0.06,,,0.02,Rainwise IP-100,2013-06-18 20:30:00,
2013-06-18 16:35:00,69.4,67.5,29.88,NW,315,3.3,4.9,95,0.06,,,0.02,Rainwise IP-100,2013-06-18 20:35:00,
2013-06-18 16:41:00,69.6,68.0,29.89,NW,315,4.7,5.1,95,0.00,,,0.02,Rainwise IP-100,2013-06-18 20:41:00,
2013-06-18 16:46:00,69.7,68.0,29.89,NW,315,4.7,5.8,95,0.06,,,0.03,Rainwise IP-100,2013-06-18 20:46:00,
2013-06-18 16:51:00,69.9,68.5,29.88,NW,315,5.6,6.8,95,0.06,,,0.03,Rainwise IP-100,2013-06-18 20:51:00,
2013-06-18 16:56:00,70.0,69.0,29.88,NW,315,4.9,8.2,96,0.00,,,0.03,Rainwise IP-100,2013-06-18 20:56:00,
2013-06-18 17:01:00,70.1,69.0,29.88,NNW,337,4.7,5.6,96,0.06,,,0.04,Rainwise IP-100,2013-06-18 21:01:00,
2013-06-18 17:06:00,70.3,69.3,29.88,NNW,337,0.0,5.4,96,0.06,,,0.04,Rainwise IP-100,2013-06-18 21:06:00,
2013-06-18 17:11:00,70.5,69.3,29.88,NNW,337,3.3,4.2,96,0.00,,,0.04,Rainwise IP-100,2013-06-18 21:11:00,
2013-06-18 17:16:00,70.6,69.7,29.89,NNE,22,2.3,3.7,97,0.00,,,0.04,Rainwise IP-100,2013-06-18 21:16:00,
2013-06-18 17:22:00,70.6,69.7,29.88,ENE,67,2.1,3.0,97,0.00,,,0.04,Rainwise IP-100,2013-06-18 21:22:00,
2013-06-18 17:27:00,70.7,69.7,29.88,SE,135,2.6,2.6,97,0.00,,,0.04,Rainwise IP-100,2013-06-18 21:27:00,
2013-06-18 17:32:00,70.6,69.7,29.88,SE,135,3.3,4.0,97,0.06,,,0.05,Rainwise IP-100,2013-06-18 21:32:00,
2013-06-18 17:37:00,70.3,69.7,29.88,SSE,157,4.4,5.4,97,0.06,,,0.05,Rainwise IP-100,2013-06-18 21:37:00,
2013-06-18 17:42:00,70.1,69.3,29.88,SSE,157,5.4,6.1,97,0.00,,,0.05,Rainwise IP-100,2013-06-18 21:42:00,
2013-06-18 17:47:00,69.9,69.3,29.89,SE,135,3.7,5.8,97,0.00,,,0.05,Rainwise IP-100,2013-06-18 21:47:00,
2013-06-18 17:52:00,69.7,69.0,29.89,ESE,112,2.6,4.7,97,0.06,,,0.06,Rainwise IP-100,2013-06-18 21:52:00,
2013-06-18 17:57:00,69.7,69.0,29.90,East,90,3.7,4.2,97,0.06,,,0.06,Rainwise IP-100,2013-06-18 21:57:00,
2013-06-18 18:02:00,69.7,69.0,29.89,ESE,112,6.5,6.5,97,0.00,,,0.06,Rainwise IP-100,2013-06-18 22:02:00,
2013-06-18 18:08:00,69.6,69.0,29.89,East,90,8.6,8.6,97,0.06,,,0.07,Rainwise IP-100,2013-06-18 22:08:00,
2013-06-18 18:13:00,69.4,68.5,29.90,ESE,112,6.3,9.3,97,0.12,,,0.08,Rainwise IP-100,2013-06-18 22:13:00,
2013-06-18 18:18:00,69.0,68.0,29.90,ESE,112,5.6,8.4,97,0.18,,,0.10,Rainwise IP-100,2013-06-18 22:18:00,
2013-06-18 18:23:00,68.8,68.0,29.91,ENE,67,4.2,6.3,97,0.12,,,0.10,Rainwise IP-100,2013-06-18 22:23:00,
2013-06-18 18:28:00,68.9,68.0,29.90,ESE,112,4.0,6.3,97,0.06,,,0.11,Rainwise IP-100,2013-06-18 22:28:00,
2013-06-18 18:33:00,68.9,68.0,29.91,SE,135,1.2,4.9,97,0.12,,,0.12,Rainwise IP-100,2013-06-18 22:33:00,
2013-06-18 18:38:00,68.8,68.0,29.91,SSE,157,1.4,2.1,97,0.06,,,0.12,Rainwise IP-100,2013-06-18 22:38:00,
2013-06-18 18:44:00,68.9,68.0,29.91,SSE,157,1.6,2.3,97,0.06,,,0.13,Rainwise IP-100,2013-06-18 22:44:00,
2013-06-18 18:49:00,68.9,68.5,29.91,South,180,3.7,4.7,98,0.18,,,0.15,Rainwise IP-100,2013-06-18 22:49:00,
2013-06-18 18:54:00,68.7,68.0,29.90,SE,135,2.6,4.7,98,0.18,,,0.16,Rainwise IP-100,2013-06-18 22:54:00,
2013-06-18 18:59:00,68.7,68.0,29.90,ESE,112,8.4,8.9,98,0.12,,,0.17,Rainwise IP-100,2013-06-18 22:59:00,
2013-06-18 19:04:00,68.6,68.0,29.89,ESE,112,9.3,10.0,98,0.06,,,0.17,Rainwise IP-100,2013-06-18 23:04:00,
2013-06-18 19:09:00,68.3,68.0,29.88,SE,135,13.3,13.8,98,0.00,,,0.17,Rainwise IP-100,2013-06-18 23:09:00,
2013-06-18 19:14:00,68.0,67.5,29.88,ESE,112,11.9,15.9,98,0.06,,,0.18,Rainwise IP-100,2013-06-18 23:14:00,
2013-06-18 19:17:00,67.9,67.5,29.88,ESE,112,9.1,16.1,98,0.06,,,0.18,Rainwise IP-100,2013-06-18 23:17:00,
2013-06-18 19:22:00,67.7,67.0,29.88,East,90,4.2,13.5,98,0.06,,,0.18,Rainwise IP-100,2013-06-18 23:22:00,
2013-06-18 19:25:00,67.6,67.0,29.89,NNE,22,4.7,12.8,98,0.00,,,0.18,Rainwise IP-100,2013-06-18 23:25:00,
2013-06-18 19:30:00,67.4,67.0,29.90,NNE,22,2.1,5.8,98,0.00,,,0.18,Rainwise IP-100,2013-06-18 23:30:00,
2013-06-18 19:35:00,67.2,66.7,29.90,ENE,67,4.4,4.9,98,0.00,,,0.18,Rainwise IP-100,2013-06-18 23:35:00,
2013-06-18 19:40:00,67.3,67.0,29.89,East,90,4.7,5.4,98,0.00,,,0.18,Rainwise IP-100,2013-06-18 23:40:00,
2013-06-18 19:45:00,67.5,67.0,29.88,East,90,4.7,7.7,98,0.00,,,0.18,Rainwise IP-100,2013-06-18 23:45:00,
2013-06-18 19:51:00,67.8,67.5,29.88,ENE,67,0.0,6.5,98,0.00,,,0.18,Rainwise IP-100,2013-06-18 23:51:00,
2013-06-18 19:56:00,68.0,67.5,29.89,ENE,67,3.5,5.6,98,0.00,,,0.18,Rainwise IP-100,2013-06-18 23:56:00,
2013-06-18 20:01:00,68.0,67.5,29.90,NNW,337,4.7,5.6,98,0.00,,,0.18,Rainwise IP-100,2013-06-19 00:01:00,
2013-06-18 20:06:00,67.7,66.7,29.90,NNE,22,3.5,10.7,97,0.00,,,0.18,Rainwise IP-100,2013-06-19 00:06:00,
2013-06-18 20:11:00,67.1,66.3,29.89,North,360,6.1,11.0,97,0.00,,,0.18,Rainwise IP-100,2013-06-19 00:11:00,
2013-06-18 20:16:00,66.6,66.0,29.90,NNE,22,7.0,11.0,97,0.00,,,0.18,Rainwise IP-100,2013-06-19 00:16:00,
2013-06-18 20:21:00,66.4,65.5,29.90,ENE,67,1.6,7.9,97,0.00,,,0.18,Rainwise IP-100,2013-06-19 00:21:00,
2013-06-18 20:26:00,66.5,66.0,29.90,NE,45,3.0,6.5,97,0.00,,,0.18,Rainwise IP-100,2013-06-19 00:26:00,
2013-06-18 20:31:00,66.6,66.0,29.89,ENE,67,6.1,8.4,97,0.00,,,0.18,Rainwise IP-100,2013-06-19 00:31:00,
2013-06-18 20:37:00,66.5,66.0,29.90,NE,45,2.8,8.2,97,0.00,,,0.18,Rainwise IP-100,2013-06-19 00:37:00,
2013-06-18 20:42:00,66.4,65.5,29.90,NE,45,4.4,7.2,97,0.06,,,0.19,Rainwise IP-100,2013-06-19 00:42:00,
2013-06-18 20:47:00,66.4,65.5,29.89,ENE,67,3.5,6.1,97,0.06,,,0.19,Rainwise IP-100,2013-06-19 00:47:00,
2013-06-18 20:52:00,66.4,65.5,29.89,ENE,67,7.5,8.6,97,0.00,,,0.19,Rainwise IP-100,2013-06-19 00:52:00,
2013-06-18 20:57:00,66.3,65.5,29.90,NNE,22,5.6,8.9,97,0.00,,,0.19,Rainwise IP-100,2013-06-19 00:57:00,
2013-06-18 21:02:00,66.1,65.0,29.90,NNE,22,3.5,7.2,97,0.00,,,0.19,Rainwise IP-100,2013-06-19 01:02:00,
2013-06-18 21:08:00,66.1,65.0,29.90,North,360,4.4,6.3,97,0.00,,,0.19,Rainwise IP-100,2013-06-19 01:08:00,
2013-06-18 21:13:00,66.0,65.0,29.90,North,360,4.7,7.2,97,0.00,,,0.19,Rainwise IP-100,2013-06-19 01:13:00,
2013-06-18 21:18:00,65.8,65.0,29.90,NNE,22,0.0,8.4,97,0.00,,,0.19,Rainwise IP-100,2013-06-19 01:18:00,
2013-06-18 21:23:00,65.7,64.5,29.90,NE,45,2.6,9.1,97,0.00,,,0.19,Rainwise IP-100,2013-06-19 01:23:00,
2013-06-18 21:28:00,65.5,64.5,29.90,NNW,337,4.4,9.6,97,0.00,,,0.19,Rainwise IP-100,2013-06-19 01:28:00,
2013-06-18 21:33:00,65.4,64.5,29.91,North,360,0.0,8.6,97,0.00,,,0.19,Rainwise IP-100,2013-06-19 01:33:00,
2013-06-18 21:38:00,65.3,64.5,29.91,NNW,337,3.5,7.9,97,0.00,,,0.19,Rainwise IP-100,2013-06-19 01:38:00,
2013-06-18 21:43:00,65.3,64.5,29.91,NNE,22,7.5,7.5,97,0.00,,,0.19,Rainwise IP-100,2013-06-19 01:43:00,
2013-06-18 21:49:00,65.2,64.0,29.91,NNE,22,2.6,7.7,97,0.00,,,0.19,Rainwise IP-100,2013-06-19 01:49:00,
2013-06-18 21:53:00,65.2,64.0,29.92,NNE,22,7.2,7.7,97,0.00,,,0.19,Rainwise IP-100,2013-06-19 01:53:00,
2013-06-18 21:59:00,65.1,64.0,29.92,North,360,7.0,10.3,97,0.00,,,0.19,Rainwise IP-100,2013-06-19 01:59:00,
2013-06-18 22:04:00,65.1,64.0,29.92,North,360,2.3,9.3,97,0.00,,,0.19,Rainwise IP-100,2013-06-19 02:04:00,
2013-06-18 22:09:00,65.2,64.5,29.92,North,360,7.9,8.6,98,0.00,,,0.19,Rainwise IP-100,2013-06-19 02:09:00,
2013-06-18 22:14:00,65.1,64.5,29.92,NNW,337,7.2,13.5,98,0.00,,,0.19,Rainwise IP-100,2013-06-19 02:14:00,
2013-06-18 22:16:00,65.0,64.5,29.92,NNE,22,9.3,13.5,98,0.00,,,0.19,Rainwise IP-100,2013-06-19 02:16:00,
2013-06-18 22:21:00,64.9,64.5,29.92,NNW,337,2.8,10.5,98,0.00,,,0.19,Rainwise IP-100,2013-06-19 02:21:00,
2013-06-18 22:26:00,65.0,64.5,29.92,NNW,337,4.7,7.0,98,0.00,,,0.19,Rainwise IP-100,2013-06-19 02:26:00,
2013-06-18 22:31:00,65.0,64.5,29.92,NNW,337,2.8,7.5,98,0.00,,,0.19,Rainwise IP-100,2013-06-19 02:31:00,
2013-06-18 22:36:00,65.0,64.5,29.92,NNW,337,0.0,7.5,98,0.00,,,0.19,Rainwise IP-100,2013-06-19 02:36:00,
2013-06-18 22:41:00,65.1,64.5,29.92,North,360,3.5,9.3,98,0.00,,,0.19,Rainwise IP-100,2013-06-19 02:41:00,
2013-06-18 22:46:00,65.0,64.5,29.92,NNW,337,2.6,8.4,98,0.00,,,0.19,Rainwise IP-100,2013-06-19 02:46:00,
2013-06-18 22:52:00,65.0,64.5,29.92,North,360,5.1,6.1,98,0.00,,,0.19,Rainwise IP-100,2013-06-19 02:52:00,
2013-06-18 22:57:00,65.0,64.5,29.92,NNW,337,5.6,7.9,98,0.00,,,0.19,Rainwise IP-100,2013-06-19 02:57:00,
2013-06-18 23:02:00,64.9,64.5,29.92,North,360,4.7,11.7,98,0.00,,,0.19,Rainwise IP-100,2013-06-19 03:02:00,
2013-06-18 23:07:00,64.9,64.5,29.92,North,360,4.7,9.3,98,0.00,,,0.19,Rainwise IP-100,2013-06-19 03:07:00,
2013-06-18 23:12:00,64.9,64.5,29.92,NNE,22,4.7,9.6,98,0.00,,,0.19,Rainwise IP-100,2013-06-19 03:12:00,
2013-06-18 23:17:00,64.9,64.5,29.93,North,360,4.2,9.6,98,0.00,,,0.19,Rainwise IP-100,2013-06-19 03:17:00,
2013-06-18 23:22:00,65.0,64.5,29.92,NNE,22,4.2,5.8,98,0.00,,,0.19,Rainwise IP-100,2013-06-19 03:22:00,
2013-06-18 23:28:00,65.0,64.0,29.93,North,360,3.7,7.9,97,0.00,,,0.19,Rainwise IP-100,2013-06-19 03:28:00,
2013-06-18 23:33:00,64.9,64.0,29.93,NNE,22,1.9,8.2,97,0.00,,,0.19,Rainwise IP-100,2013-06-19 03:33:00,
2013-06-18 23:38:00,64.9,64.0,29.92,ENE,67,4.4,12.6,97,0.00,,,0.19,Rainwise IP-100,2013-06-19 03:38:00,
2013-06-18 23:43:00,64.9,64.0,29.93,NNW,337,1.4,7.9,97,0.00,,,0.19,Rainwise IP-100,2013-06-19 03:43:00,
2013-06-18 23:48:00,64.9,64.0,29.93,NNW,337,1.4,7.0,97,0.00,,,0.19,Rainwise IP-100,2013-06-19 03:48:00,
2013-06-18 23:53:00,65.0,64.0,29.93,North,360,6.5,6.5,97,0.00,,,0.19,Rainwise IP-100,2013-06-19 03:53:00,
2013-06-18 23:58:00,64.9,64.0,29.93,North,360,5.6,7.2,97,0.00,,,0.19,Rainwise IP-100,2013-06-19 03:58:00,